Regional Weather Roundup
Issued by NWS

Home | Current Version | Previous Version | Text Only | Print | Product List | Glossary Off
Versions: 1 2 3 4 5 6 7 8 9 10 11 12 13 14 15 16 17 18 19 20 21 22 23 24 25 26 27 28 29 30 31 32 33 34 35 36 37 38 39 40 41 42 43 44 45 46 47 48 49 50

000
ASUS43 KBIS 200010
RWRND

NORTH DAKOTA REGIONAL WEATHER ROUNDUP
NATIONAL WEATHER SERVICE BISMARCK ND
700 PM CDT FRI SEP 19 2014

NOTE: "FAIR" INDICATES FEW OR NO CLOUDS BELOW 12,000 FEET WITH NO
SIGNIFICANT WEATHER AND/OR OBSTRUCTIONS TO VISIBILITY.


NDZ001>003-009>011-017-200100-
NORTHWEST NORTH DAKOTA

CITY           SKY/WX    TMP DP  RH WIND       PRES   REMARKS
WILLISTON      CLEAR     72  50  45 NW14      29.76R
6HR MIN TEMP:  72; 6HR MAX TEMP:  80;

MINOT          PTCLDY    69  55  60 NW16      29.69R
MINOT AFB      PTCLDY    79  50  36 W20G30    29.56R
$$

NDZ018>021-031>035-040>046-200100-
SOUTHWEST NORTH DAKOTA

CITY           SKY/WX    TMP DP  RH WIND       PRES   REMARKS
BISMARCK       CLOUDY    77  51  40 W14       29.69R
6HR MIN TEMP:  77; 6HR MAX TEMP:  87;

DICKINSON      CLOUDY    72  48  42 W14       29.77R
GARRISON         N/A     74  55  51 NW17G23   29.70R
6HR MIN TEMP:  74; 6HR MAX TEMP:  83;

HETTINGER ARPT CLOUDY    71  49  45 W10       29.82R
$$

NDZ004>008-012>016-024-026-027-054-200100-
NORTHEAST NORTH DAKOTA

CITY           SKY/WX    TMP DP  RH WIND       PRES   REMARKS
GRAND FORKS    PTCLDY    78  55  44 W6        29.49F
GRND FRKS AFB  PTCLDY    76  57  51 W7        29.51S
DEVILS LAKE    CLEAR     75  54  46 NW13      29.57R
$$

NDZ022-023-025-028>030-036>039-047>053-200100-
SOUTHEAST NORTH DAKOTA

CITY           SKY/WX    TMP DP  RH WIND       PRES   REMARKS
FARGO          PTCLDY    77  66  68 S12       29.56R
6HR MIN TEMP:  69; 6HR MAX TEMP:  80; 6HR PCP: TRACE;

JAMESTOWN      MOCLDY    74  53  48 W7        29.62R
$$



USA.gov is the U.S. government's official web portal to all federal, state and local government web resources and services.